Location: Asheville, NC
(35.6000°N, 82.5500°W)
Time: 18:30:48
(UTC-04:00)

Vanguard 2 Rocket - Pass Details

Date: 09 February 2018
Orbit: 554 x 3327 km, 32.9° (Epoch: 21 May)

Event Time Altitude Azimuth Distance (km) Brightness Sun altitude
Exits shadow 02:20:43 49° 102° (ESE) 3,894 9.9 -59.9°
Drops below altitude 10° 02:32:56 10° 81° (E) 5,753 11.3 -57.9°
Sets 02:36:53 0° 79° (ENE) 6,515 11.7 -57.3°
